Home > Time Zones > World Clock > Weather > Togo > Lome > Past weeks

Flag for Togo Weather past 2 weeks in Lome, Togo

Now
79 °F

Broken clouds.


Feels Like: 82 °F
Forecast: 76 / 80 °F
Wind: 14 mph from Southwest

Location: Lome Airport

Current Time: Jul 28, 2014 at 1:39:20 PM

Latest Report: Jul 28, 2014 at 1:00 PM


Visibility: 5 mi

Pressure: 29.95 "Hg

Humidity: 89%

Dew point: 75 °F

Location of LomeLocation

Historic Weather in Lome — Graph

°F

Lome temperature yesterday

Maximum temperature yesterday: 79 °F (at 7:30 AM)
Minimum temperature yesterday: 75 °F (at 3:00 PM)
Average temperature yesterday: 77 °F

Past Weeks' High & Low Weather Summary

 TemperatureHumidityPressure
High86 °F (Jul 13, 12:00 PM)100% (Jul 16, 4:30 AM)30.07 "Hg (Jul 16, 4:30 AM)
Low72 °F (Jul 16, 4:30 AM)66% (Jul 13, 12:00 PM)29.86 "Hg (Jul 15, 4:00 PM)
Average79 °F87%29.98 "Hg
* Reported Jul 13 12:00 Noon — Jul 28 12:30 PM, Lome, Weather by CustomWeather, © 2014

Note: Actual official high and low records may vary slightly from our data, if they occured in-between our weather recording intervals... More about our weather records

Advertising

Lome weather history for previous 24 hours

 ConditionsComfort  
Time TempWeatherWind HumidityBarometerVisibility
12:30 PM
Jul 28
79 °FBroken clouds.13 mph89%29.95 "Hg5 mi
12:00 PM79 °FBroken clouds.13 mph89%29.95 "Hg5 mi
11:30 AM79 °FBroken clouds.12 mph89%29.98 "Hg5 mi
11:00 AM79 °FBroken clouds.12 mph89%29.98 "Hg5 mi
10:30 AM79 °FBroken clouds.13 mph94%29.98 "Hg5 mi
10:00 AM77 °FBroken clouds.10 mph94%29.98 "Hg5 mi
9:30 AM77 °FBroken clouds.10 mph94%29.98 "Hg5 mi
9:00 AM77 °FBroken clouds.9 mph94%29.98 "Hg5 mi
8:30 AM77 °FBroken clouds.9 mph94%29.98 "Hg5 mi
8:00 AM77 °FBroken clouds.8 mph94%29.98 "Hg5 mi
7:30 AM75 °FBroken clouds.8 mph100%29.98 "Hg5 mi
7:00 AM75 °FBroken clouds.9 mph100%29.95 "Hg5 mi
6:30 AM75 °FBroken clouds.9 mph100%29.95 "Hg5 mi
6:00 AM75 °FPartly sunny.8 mph100%29.95 "Hg5 mi
5:30 AM75 °FPassing clouds.9 mph100%29.92 "Hg5 mi
5:00 AM75 °FPassing clouds.8 mph100%29.92 "Hg5 mi
4:30 AM75 °FPassing clouds.9 mph100%29.92 "Hg5 mi
4:00 AM75 °FPassing clouds.7 mph100%29.92 "Hg5 mi
3:30 AM75 °FLight rain. Partly cloudy.7 mph100%29.92 "Hg5 mi
2:30 AM77 °FLight rain. Partly cloudy.9 mph94%29.92 "Hg5 mi
2:00 AM77 °FLight rain. Partly cloudy.7 mph94%29.92 "Hg5 mi
1:30 AM77 °FPartly cloudy.9 mph94%29.92 "HgN/A
1:00 AM77 °FPartly cloudy.12 mph89%29.92 "HgN/A
12:30 AM77 °FPartly cloudy.9 mph94%29.95 "HgN/A
12:00 AM77 °FPartly cloudy.12 mph94%29.95 "HgN/A
11:30 PM
Jul 27
77 °FPartly cloudy.13 mph94%29.95 "HgN/A
11:00 PM77 °FPartly cloudy.14 mph94%29.95 "HgN/A
10:30 PM77 °FPartly cloudy.10 mph94%29.95 "HgN/A
10:00 PM77 °FPartly cloudy.12 mph94%29.95 "HgN/A
9:30 PM77 °FPartly cloudy.13 mph94%29.95 "HgN/A
9:00 PM77 °FPassing clouds.13 mph94%29.95 "HgN/A
8:30 PM77 °FPartly cloudy.12 mph94%29.95 "HgN/A
8:00 PM77 °FPartly cloudy.12 mph94%29.92 "HgN/A
7:30 PM77 °FPassing clouds.9 mph94%29.92 "HgN/A
7:00 PM77 °FPassing clouds.12 mph94%29.92 "HgN/A
6:30 PM77 °FPassing clouds.13 mph94%29.89 "HgN/A
6:00 PM77 °FBroken clouds.13 mph94%29.89 "HgN/A
5:30 PM77 °FScattered clouds.15 mph94%29.89 "HgN/A
5:00 PM77 °FBroken clouds.14 mph94%29.89 "Hg5 mi
4:30 PM77 °FBroken clouds.12 mph94%29.89 "Hg5 mi
4:00 PM77 °FBroken clouds.13 mph100%29.89 "Hg5 mi
3:30 PM77 °FDrizzle. Broken clouds.12 mph100%29.89 "Hg5 mi
3:00 PM75 °FDrizzle. Broken clouds.14 mph100%29.89 "Hg1 mi
2:30 PM77 °FDrizzle. Broken clouds.13 mph94%29.89 "Hg1 mi
2:04 PM77 °FRain. Broken clouds.15 mph94%29.89 "Hg2 mi
2:02 PM79 °FDrizzle. Broken clouds.15 mph89%29.92 "Hg3 mi
1:30 PM79 °FDrizzle. Broken clouds.15 mph89%29.92 "HgN/A
1:00 PM79 °FPartly sunny.16 mph89%29.95 "HgN/A
Weather by CustomWeather, © 2014

See weather overviewHow to use our weather pages